Overview Statistics Trail Chart Weather Telemetry Raw packets
 

This is the latest recevied weather packets stored in our database for station/object W0WFX-2. If no packets are shown the sender has not sent any weather packets the latest 10 day(s).

<< 94 95 96 97 98 99 100 >>
Time Temp. Humidity Pressure Rain* Wind** Luminosity Snow
1787939144 31.11° C 40% 1021 hPa 0 mm - 782 W/m² -
1787938844 30.56° C 39% 1021 hPa 0 mm - 730 W/m² -
1787938543 30.56° C 40% 1021.3 hPa 0 mm - 722 W/m² -
1787938240 30.56° C 43% 1021.1 hPa 0 mm - 717 W/m² -
1787937940 30.56° C 41% 1021.3 hPa 0 mm - 712 W/m² -
1787937636 31.11° C 40% 1021.3 hPa 0 mm - 704 W/m² -
1787937332 31.11° C 40% 1021.3 hPa 0 mm - 700 W/m² -
1787937027 30.56° C 40% 1021.4 hPa 0 mm - 698 W/m² -
1787936727 30.56° C 43% 1021.3 hPa 0 mm - 690 W/m² -
1787936421 30° C 43% 1021.4 hPa 0 mm - 684 W/m² -
1787936121 30° C 41% 1021.3 hPa 0 mm - 678 W/m² -
1787935817 30° C 40% 1021.4 hPa 0 mm - 671 W/m² -
1787935513 30° C 42% 1021.3 hPa 0 mm - 663 W/m² -
1787935209 30° C 42% 1021.5 hPa 0 mm - 656 W/m² -
1787934904 30° C 43% 1021.4 hPa 0 mm - 651 W/m² -
1787934603 29.44° C 43% 1021.5 hPa 0 mm - 639 W/m² -
1787934298 29.44° C 43% 1021.4 hPa 0 mm - 635 W/m² -
1787933997 29.44° C 47% 1021.6 hPa 0 mm - 621 W/m² -
1787933696 28.89° C 45% 1021.4 hPa 0 mm - 612 W/m² -
1787933392 28.89° C 47% 1021.5 hPa 0 mm - 608 W/m² -
1787933091 28.89° C 49% 1021.2 hPa 0 mm - 593 W/m² -
1787932790 28.89° C 48% 1021.5 hPa 0 mm - 583 W/m² -
1787932485 28.89° C 50% 1021.3 hPa 0 mm - 575 W/m² -
1787932180 28.89° C 48% 1021.5 hPa 0 mm - 565 W/m² -
1787931878 28.33° C 52% 1021.4 hPa 0 mm - 552 W/m² -

* Rain latest hour (hover to see other rain measurements)
** Current wind speed in m/s (hover to see current wind gust speed)